| time (UTC) | temp F | wind direction | speed knots | gust knots | rain 1hr in | rain 24hr in | rain mn in | humidity % | barometer mb |
| 20260507110347 | 47 | 116 | 0.0 | 0.0 | 0.00 | 0.00 | 0.00 | 32 | 1021.8 |
| 20260507105333 | 47 | 47 | 0.0 | 0.0 | 0.00 | 0.00 | 0.00 | 31 | 1022.1 |
| 20260507104322 | 48 | 73 | 0.0 | 0.0 | 0.00 | 0.00 | 0.00 | 31 | 1022.1 |
| 20260507103335 | 48 | 75 | 0.0 | 0.0 | 0.00 | 0.00 | 0.00 | 31 | 1022.0 |
| 20260507102336 | 48 | 59 | 0.0 | 0.0 | 0.00 | 0.00 | 0.00 | 31 | 1021.8 |
| 20260507101330 | 48 | 61 | 0.0 | 0.0 | 0.00 | 0.00 | 0.00 | 31 | 1021.8 |
| 20260507100342 | 48 | 124 | 0.0 | 0.0 | 0.00 | 0.00 | 0.00 | 31 | 1021.8 |
| 20260507095323 | 49 | 124 | 0.0 | 0.0 | 0.00 | 0.00 | 0.00 | 30 | 1021.9 |
| 20260507094333 | 49 | 75 | 0.0 | 0.0 | 0.00 | 0.00 | 0.00 | 31 | 1021.9 |
| 20260507093346 | 50 | 75 | 0.0 | 0.0 | 0.00 | 0.00 | 0.00 | 29 | 1021.2 |
| 20260507092326 | 50 | 86 | 0.0 | 0.0 | 0.00 | 0.00 | 0.00 | 29 | 1021.2 |
| 20260507091335 | 50 | 76 | 0.9 | 0.0 | 0.00 | 0.00 | 0.00 | 30 | 1021.2 |
| 20260507090333 | 50 | 103 | 0.0 | 0.0 | 0.00 | 0.00 | 0.00 | 30 | 1021.7 |
| 20260507085336 | 50 | 62 | 0.0 | 0.0 | 0.00 | 0.00 | 0.00 | 31 | 1021.9 |
| 20260507084326 | 50 | 11 | 0.0 | 0.0 | 0.00 | 0.00 | 0.00 | 30 | 1021.9 |
| 20260507083338 | 50 | 37 | 0.0 | 0.0 | 0.00 | 0.00 | 0.00 | 31 | 1021.9 |
| 20260507082340 | 50 | 47 | 0.0 | 0.0 | 0.00 | 0.00 | 0.00 | 31 | 1022.0 |
| 20260507081332 | 50 | 128 | 0.0 | 0.0 | 0.00 | 0.00 | 0.00 | 31 | 1022.0 |
| 20260507080332 | 50 | 72 | 0.0 | 0.0 | 0.00 | 0.00 | 0.00 | 32 | 1021.6 |
| 20260507075332 | 49 | 79 | 0.0 | 0.0 | 0.00 | 0.00 | 0.00 | 32 | 1022.2 |
| 20260507074322 | 48 | 40 | 0.0 | 0.0 | 0.00 | 0.00 | 0.00 | 34 | 1022.2 |
| 20260507073335 | 48 | 40 | 0.0 | 0.0 | 0.00 | 0.00 | 0.00 | 34 | 1022.1 |
| 20260507072336 | 48 | 350 | 0.0 | 0.0 | 0.00 | 0.00 | 0.00 | 33 | 1021.9 |
| 20260507071324 | 48 | 350 | 0.0 | 0.0 | 0.00 | 0.00 | 0.00 | 30 | 1021.9 |
| 20260507070341 | 48 | 350 | 0.0 | 0.0 | 0.00 | 0.00 | 0.00 | 29 | 1021.9 |
| 20260507065323 | 49 | 350 | 0.0 | 0.0 | 0.00 | 0.00 | 0.00 | 28 | 1021.4 |
| 20260507064332 | 49 | 350 | 0.0 | 0.0 | 0.00 | 0.00 | 0.00 | 27 | 1021.4 |
| 20260507063346 | 49 | 65 | 0.0 | 0.0 | 0.00 | 0.00 | 0.00 | 27 | 1021.3 |
| 20260507062326 | 50 | 65 | 0.0 | 0.0 | 0.00 | 0.00 | 0.00 | 26 | 1021.2 |
| 20260507061335 | 50 | 65 | 0.0 | 0.0 | 0.00 | 0.00 | 0.00 | 25 | 1021.2 |
| 20260507060331 | 49 | 346 | 0.0 | 0.0 | 0.00 | 0.00 | 0.00 | 25 | 1021.3 |
| 20260507055332 | 49 | 73 | 0.0 | 0.0 | 0.00 | 0.00 | 0.00 | 25 | 1021.1 |
| 20260507054322 | 49 | 73 | 0.0 | 0.0 | 0.00 | 0.00 | 0.00 | 25 | 1021.1 |
| 20260507053335 | 49 | 73 | 0.0 | 0.0 | 0.00 | 0.00 | 0.00 | 25 | 1021.2 |
| 20260507052335 | 50 | 73 | 0.0 | 0.0 | 0.00 | 0.00 | 0.00 | 24 | 1020.4 |
| 20260507051324 | 50 | 73 | 0.0 | 0.0 | 0.00 | 0.00 | 0.00 | 23 | 1020.4 |
| 20260507050331 | 51 | 73 | 0.0 | 0.0 | 0.00 | 0.00 | 0.00 | 23 | 1021.0 |
| 20260507045333 | 51 | 73 | 0.0 | 0.0 | 0.00 | 0.00 | 0.00 | 23 | 1020.7 |
| 20260507044322 | 50 | 51 | 0.0 | 0.0 | 0.00 | 0.00 | 0.00 | 25 | 1020.7 |
| 20260507043338 | 51 | 335 | 0.0 | 0.0 | 0.00 | 0.00 | 0.00 | 25 | 1020.7 |
| 20260507042339 | 51 | 335 | 0.0 | 0.0 | 0.00 | 0.00 | 0.00 | 25 | 1020.4 |
| 20260507041328 | 52 | 335 | 0.0 | 0.0 | 0.00 | 0.00 | 0.00 | 26 | 1020.4 |
| 20260507040345 | 53 | 335 | 0.0 | 0.0 | 0.00 | 0.00 | 0.00 | 26 | 1020.0 |
| 20260507035326 | 53 | 335 | 0.0 | 0.0 | 0.00 | 0.00 | 0.00 | 25 | 1019.9 |
| 20260507034338 | 52 | 34 | 0.0 | 0.0 | 0.00 | 0.00 | 0.00 | 26 | 1019.9 |
| 20260507033331 | 52 | 34 | 0.0 | 0.0 | 0.00 | 0.00 | 0.00 | 27 | 1019.6 |
| 20260507032332 | 53 | 326 | 0.0 | 0.0 | 0.00 | 0.00 | 0.00 | 28 | 1019.8 |
| 20260507031321 | 53 | 326 | 0.0 | 0.0 | 0.00 | 0.00 | 0.00 | 27 | 1019.8 |
| 20260507030338 | 55 | 326 | 0.0 | 0.0 | 0.00 | 0.00 | 0.00 | 26 | 1019.3 |
| 20260507025339 | 56 | 326 | 0.0 | 0.0 | 0.00 | 0.00 | 0.00 | 25 | 1019.3 |
| 20260507024328 | 57 | 326 | 0.0 | 0.0 | 0.00 | 0.00 | 0.00 | 24 | 1019.3 |
| 20260507023340 | 59 | 326 | 0.0 | 0.0 | 0.00 | 0.00 | 0.00 | 23 | 1018.7 |
| 20260507022321 | 59 | 326 | 0.0 | 0.0 | 0.00 | 0.00 | 0.00 | 23 | 1018.8 |
| 20260507021331 | 60 | 326 | 0.0 | 0.0 | 0.00 | 0.00 | 0.00 | 22 | 1018.8 |
| 20260507020343 | 60 | 328 | 0.0 | 0.0 | 0.00 | 0.00 | 0.00 | 22 | 1018.2 |
| 20260507015328 | 61 | 326 | 0.0 | 0.0 | 0.00 | 0.00 | 0.00 | 22 | 1018.1 |
| 20260507014338 | 61 | 328 | 0.0 | 0.0 | 0.00 | 0.00 | 0.00 | 21 | 1018.1 |
| 20260507013331 | 62 | 322 | 0.0 | 0.0 | 0.00 | 0.00 | 0.00 | 21 | 1018.0 |
| 20260507012331 | 62 | 337 | 0.0 | 0.0 | 0.00 | 0.00 | 0.00 | 21 | 1017.9 |
| 20260507011321 | 62 | 275 | 0.0 | 0.0 | 0.00 | 0.00 | 0.00 | 21 | 1017.9 |
| 20260507010333 | 62 | 247 | 0.0 | 0.0 | 0.00 | 0.00 | 0.00 | 21 | 1018.0 |
| 20260507005338 | 63 | 247 | 0.0 | 0.0 | 0.00 | 0.00 | 0.00 | 21 | 1018.1 |
| 20260507004330 | 63 | 258 | 0.0 | 0.0 | 0.00 | 0.00 | 0.00 | 22 | 1018.1 |
| 20260507003343 | 63 | 258 | 0.0 | 0.0 | 0.00 | 0.00 | 0.00 | 21 | 1017.9 |
| 20260507002323 | 63 | 258 | 0.0 | 0.0 | 0.00 | 0.00 | 0.00 | 22 | 1017.9 |
| 20260507001333 | 64 | 299 | 0.0 | 0.0 | 0.00 | 0.00 | 0.00 | 21 | 1017.9 |
| 20260507000345 | 64 | 253 | 0.0 | 0.0 | 0.00 | 0.00 | 0.00 | 21 | 1017.7 |
| 20260506235330 | 64 | 339 | 0.0 | 0.0 | 0.00 | 0.00 | 0.00 | 21 | 1017.8 |
| 20260506234323 | 64 | 344 | 0.9 | 0.0 | 0.00 | 0.00 | 0.00 | 21 | 1017.8 |
| 20260506233335 | 65 | 248 | 0.9 | 0.0 | 0.00 | 0.00 | 0.00 | 21 | 1017.7 |
| 20260506232337 | 64 | 320 | 0.9 | 0.0 | 0.00 | 0.00 | 0.00 | 22 | 1017.3 |
| 20260506231326 | 65 | 330 | 1.7 | 0.0 | 0.00 | 0.00 | 0.00 | 21 | 1017.3 |
| 20260506230339 | 65 | 328 | 2.6 | 0.0 | 0.00 | 0.00 | 0.00 | 22 | 1017.7 |
| 20260506225323 | 64 | 267 | 0.9 | 0.0 | 0.00 | 0.00 | 0.00 | 22 | 1017.9 |
| 20260506224333 | 65 | 344 | 0.9 | 0.0 | 0.00 | 0.00 | 0.00 | 22 | 1017.9 |
| 20260506223346 | 65 | 349 | 0.9 | 0.0 | 0.00 | 0.00 | 0.00 | 21 | 1017.3 |
| 20260506222326 | 65 | 277 | 0.0 | 0.0 | 0.00 | 0.00 | 0.00 | 22 | 1017.9 |
| 20260506221336 | 64 | 359 | 0.0 | 0.0 | 0.00 | 0.00 | 0.00 | 22 | 1017.9 |
| 20260506220349 | 64 | 347 | 0.9 | 0.0 | 0.00 | 0.00 | 0.00 | 23 | 1018.1 |
| 20260506215332 | 64 | 301 | 0.0 | 0.0 | 0.00 | 0.00 | 0.00 | 22 | 1018.1 |
| 20260506214322 | 64 | 217 | 0.9 | 0.0 | 0.00 | 0.00 | 0.00 | 22 | 1018.1 |
| 20260506213334 | 63 | 346 | 0.0 | 0.0 | 0.00 | 0.00 | 0.00 | 23 | 1017.9 |
| 20260506212335 | 62 | 215 | 0.9 | 0.0 | 0.00 | 0.00 | 0.00 | 24 | 1018.3 |
| 20260506211324 | 63 | 268 | 0.0 | 0.0 | 0.00 | 0.00 | 0.00 | 24 | 1018.3 |
| 20260506210337 | 62 | 248 | 0.9 | 0.0 | 0.00 | 0.00 | 0.00 | 24 | 1018.0 |
| 20260506205322 | 61 | 54 | 0.0 | 0.0 | 0.00 | 0.00 | 0.00 | 25 | 1017.9 |
| 20260506204331 | 62 | 11 | 0.9 | 0.0 | 0.00 | 0.00 | 0.00 | 24 | 1017.9 |
| 20260506203344 | 61 | 4 | 0.0 | 0.0 | 0.00 | 0.00 | 0.00 | 25 | 1018.0 |
| 20260506202325 | 60 | 292 | 0.0 | 0.0 | 0.00 | 0.00 | 0.00 | 26 | 1018.5 |
| 20260506201334 | 60 | 339 | 0.0 | 0.0 | 0.00 | 0.00 | 0.00 | 26 | 1018.5 |
| 20260506200331 | 61 | 344 | 0.9 | 0.0 | 0.00 | 0.00 | 0.00 | 25 | 1018.0 |
| 20260506195331 | 61 | 360 | 0.0 | 0.0 | 0.00 | 0.00 | 0.00 | 27 | 1018.0 |
| 20260506194325 | 60 | 71 | 0.0 | 0.0 | 0.00 | 0.00 | 0.00 | 27 | 1018.0 |
| 20260506193341 | 61 | 352 | 0.0 | 0.0 | 0.00 | 0.00 | 0.00 | 27 | 1018.1 |
| 20260506192322 | 59 | 263 | 0.0 | 0.0 | 0.00 | 0.00 | 0.00 | 28 | 1018.0 |
| 20260506191332 | 60 | 360 | 0.0 | 0.0 | 0.00 | 0.00 | 0.00 | 28 | 1018.0 |
| 20260506190345 | 60 | 330 | 0.0 | 0.0 | 0.00 | 0.00 | 0.00 | 28 | 1018.5 |
| 20260506185325 | 61 | 296 | 0.0 | 0.0 | 0.00 | 0.00 | 0.00 | 27 | 1018.6 |
| 20260506184338 | 61 | 13 | 0.0 | 0.0 | 0.00 | 0.00 | 0.00 | 27 | 1018.6 |
| 20260506183331 | 60 | 282 | 0.0 | 0.0 | 0.00 | 0.00 | 0.00 | 27 | 1018.3 |
| 20260506182331 | 59 | 258 | 0.0 | 0.0 | 0.00 | 0.00 | 0.00 | 29 | 1018.2 |
| 20260506181321 | 59 | 284 | 0.0 | 0.0 | 0.00 | 0.00 | 0.00 | 28 | 1018.2 |
| 20260506180334 | 58 | 248 | 0.0 | 0.0 | 0.00 | 0.00 | 0.00 | 28 | 1018.7 |
| 20260506175335 | 57 | 356 | 0.9 | 0.0 | 0.00 | 0.00 | 0.00 | 30 | 1018.7 |
| 20260506174329 | 57 | 319 | 0.9 | 0.0 | 0.00 | 0.00 | 0.00 | 31 | 1018.7 |
| 20260506173341 | 57 | 251 | 0.9 | 0.0 | 0.00 | 0.00 | 0.00 | 32 | 1018.6 |
| 20260506172322 | 56 | 260 | 0.0 | 0.0 | 0.00 | 0.00 | 0.00 | 31 | 1018.1 |
| 20260506171332 | 56 | 343 | 0.9 | 0.0 | 0.00 | 0.00 | 0.00 | 31 | 1018.1 |
| 20260506170344 | 56 | 268 | 0.0 | 0.0 | 0.00 | 0.00 | 0.00 | 29 | 1018.2 |
| 20260506165325 | 56 | 329 | 0.9 | 0.0 | 0.00 | 0.00 | 0.00 | 30 | 1018.1 |
| 20260506164335 | 55 | 113 | 0.0 | 0.0 | 0.00 | 0.00 | 0.00 | 31 | 1018.1 |
| 20260506163332 | 54 | 258 | 0.0 | 0.0 | 0.00 | 0.00 | 0.00 | 31 | 1018.0 |
| 20260506162332 | 54 | 312 | 0.9 | 0.0 | 0.00 | 0.00 | 0.00 | 31 | 1017.7 |
| 20260506161322 | 54 | 265 | 0.9 | 0.0 | 0.00 | 0.00 | 0.00 | 31 | 1017.7 |
| 20260506160334 | 54 | 337 | 0.0 | 0.0 | 0.00 | 0.00 | 0.00 | 33 | 1017.8 |
| 20260506155335 | 53 | 315 | 0.0 | 0.0 | 0.00 | 0.00 | 0.00 | 35 | 1017.4 |
| 20260506154325 | 52 | 260 | 0.0 | 0.0 | 0.00 | 0.00 | 0.00 | 35 | 1017.4 |
| 20260506153342 | 52 | 268 | 0.0 | 0.0 | 0.00 | 0.00 | 0.00 | 34 | 1017.4 |
| 20260506152323 | 50 | 340 | 0.0 | 0.0 | 0.00 | 0.00 | 0.00 | 37 | 1017.9 |
| 20260506151332 | 49 | 217 | 0.0 | 0.0 | 0.00 | 0.00 | 0.00 | 39 | 1017.9 |
| 20260506150345 | 48 | 243 | 0.0 | 0.0 | 0.00 | 0.00 | 0.00 | 43 | 1017.9 |
| 20260506145327 | 47 | 278 | 0.0 | 0.0 | 0.00 | 0.00 | 0.00 | 46 | 1017.5 |
| 20260506144339 | 45 | 258 | 0.0 | 0.0 | 0.00 | 0.00 | 0.00 | 50 | 1017.5 |
| 20260506143336 | 43 | 189 | 0.0 | 0.0 | 0.00 | 0.00 | 0.00 | 52 | 1017.6 |
| 20260506142337 | 42 | 185 | 0.0 | 0.0 | 0.00 | 0.00 | 0.00 | 55 | 1017.4 |
| 20260506141326 | 40 | 185 | 0.0 | 0.0 | 0.00 | 0.00 | 0.00 | 57 | 1017.4 |
| 20260506140339 | 39 | 178 | 0.0 | 0.0 | 0.00 | 0.00 | 0.00 | 58 | 1017.6 |
| 20260506135340 | 38 | 172 | 0.0 | 0.0 | 0.00 | 0.00 | 0.00 | 61 | 1017.0 |
| 20260506134329 | 37 | 220 | 0.0 | 0.0 | 0.00 | 0.00 | 0.00 | 65 | 1017.0 |
| 20260506133346 | 36 | 222 | 0.0 | 0.0 | 0.00 | 0.00 | 0.00 | 67 | 1017.2 |
| 20260506132327 | 35 | 220 | 0.0 | 0.0 | 0.00 | 0.00 | 0.00 | 67 | 1016.9 |
| 20260506131337 | 35 | 220 | 0.0 | 0.0 | 0.00 | 0.00 | 0.00 | 69 | 1016.9 |
| 20260506130329 | 34 | 220 | 0.0 | 0.0 | 0.00 | 0.00 | 0.00 | 70 | 1016.8 |
| 20260506125330 | 33 | 222 | 0.0 | 0.0 | 0.00 | 0.00 | 0.00 | 70 | 1016.6 |
| 20260506124340 | 33 | 222 | 0.0 | 0.0 | 0.00 | 0.00 | 0.00 | 69 | 1016.6 |
| 20260506123337 | 34 | 222 | 0.0 | 0.0 | 0.00 | 0.00 | 0.00 | 68 | 1016.5 |
| 20260506122337 | 34 | 222 | 0.0 | 0.0 | 0.00 | 0.00 | 0.00 | 68 | 1016.4 |
| 20260506121327 | 34 | 222 | 0.0 | 0.0 | 0.00 | 0.00 | 0.00 | 67 | 1016.4 |
| 20260506120340 | 35 | 222 | 0.0 | 0.0 | 0.00 | 0.00 | 0.00 | 67 | 1016.0 |
| 20260506115320 | 35 | 222 | 0.0 | 0.0 | 0.00 | 0.00 | 0.00 | 67 | 1015.8 |
| 20260506114330 | 35 | 222 | 0.0 | 0.0 | 0.00 | 0.00 | 0.00 | 67 | 1015.8 |
| 20260506113343 | 34 | 220 | 0.0 | 0.0 | 0.00 | 0.00 | 0.00 | 67 | 1015.8 |
| 20260506112327 | 34 | 222 | 0.0 | 0.0 | 0.00 | 0.00 | 0.00 | 67 | 1015.7 |
| 20260506111338 | 34 | 222 | 0.0 | 0.0 | 0.00 | 0.00 | 0.00 | 68 | 1015.7 |